Regional Weather Roundup
Issued by NWS

Home | Current Version | Previous Version | Text Only | Print | Product List | Glossary On
Versions: 1 2 3 4 5 6 7 8 9 10 11 12 13 14 15 16 17 18 19 20 21 22 23 24 25 26 27 28 29 30 31 32 33 34 35 36 37 38 39 40 41 42 43 44 45 46 47 48 49 50
024
ASUS44 KJAN 311010
RWRMS

MISSISSIPPI HOURLY WEATHER ROUNDUP
NATIONAL WEATHER SERVICE JACKSON MS
500 AM CDT FRI OCT 31 2014

NOTE: "FAIR: INDICATES FEW OR NO CLOUDS BELOW 12,000 FEET WITH NO
SIGNIFICANT WEATHER AND/OR OBSTRUCTIONS TO VISIBILITY.

MSZ001>002-007>008-010>013-018>021-025>028-034>036-311100-
NORTHWEST MISSISSIPPI

CITY           SKY/WX    TMP DP  RH WIND       PRES   REMARKS
CLARKSDALE     FAIR      54  50  87 NW12      30.00S
CLEVELAND      FAIR      51  49  93 NW6       30.00S
GREENWOOD      PTCLDY    48  46  93 CALM      29.99S
GREENVILLE     CLEAR     54  47  77 NW8       30.01R
GRENADA        FAIR      43  43 100 CALM      29.99S
OLIVE BRANCH   CLEAR     46  46 100 CALM      29.98R
OXFORD         FAIR      45  43  93 CALM      29.99S
TUNICA         SUNNY     52  46  82 NW5       30.00S
$$

MSZ003>006-009-014>017-022>024-029>033-037>039-311100-
NORTHEAST MISSISSIPPI

CITY           SKY/WX    TMP DP  RH WIND       PRES   REMARKS
COLUMBUS AFB   PTCLDY    48  46  92 NE7       29.98S
CORINTH          N/A     48  46  93 CALM      29.97S FOG
GOLDN TRIANGLE CLOUDY    48  43  81 S3        29.97F
STARKVILLE     FAIR      43  43 100 CALM      29.98S
TUPELO         CLEAR     48  45  89 CALM      29.97S
$$

MSZ040-058-311100-
CENTRAL MISSISSIPPI

CITY           SKY/WX    TMP DP  RH WIND       PRES   REMARKS
JACKSON INTL   CLEAR     44  42  93 SE3       30.01S
JACKSON HAWKNS CLEAR     49  45  86 CALM      30.01S
MERIDIAN KEY   PTCLDY    40  38  93 S6        30.00F
MERIDIAN NAS   CLOUDY    43  40  89 CALM      29.99F
RAYMOND        FAIR      45  39  81 CALM      30.01S
VICKSBURG      CLEAR     42  41  96 CALM      30.03R
$$

MSZ059>079-311100-
SOUTH MISSISSIPPI

CITY           SKY/WX    TMP DP  RH WIND       PRES   REMARKS
BROOKHAVEN     FAIR      43  43 100 CALM      30.03F
COLUMBIA         N/A     41  39  93 MISG      30.01F
HATTIESBURG    PTCLDY    44  40  85 CALM      30.03S
MCCOMB         CLEAR     45  42  89 CALM      30.03F
NATCHEZ        CLEAR     46  41  81 CALM      30.04S
PINE BELT      CLEAR     45  39  81 CALM      30.02F
$$

MSZ080>082-311100-
COASTAL MISSISSIPPI

CITY           SKY/WX    TMP DP  RH WIND       PRES   REMARKS
BILOXI         CLEAR     54  43  66 N5        30.01S
PASCAGOULA     CLEAR     41  40  96 CALM      30.01F
GULFPORT       CLEAR     47  43  86 CALM      30.01F
$$



USA.gov is the U.S. government's official web portal to all federal, state and local government web resources and services.